[[{"header":{"parameterUnit":"m.s-1","parameterCategory":1,"la1":30.2991,"la2":30.254,"lo1":-89.0895,"lo2":-89.0444,"dy":0.0017,"dx":0.0017,"nx":28,"ny":28,"refTime":"2024-10-08T21:00:00:Z","depth":0,"parameterNumber":2,"parameterNumberName":"U-component_of_WINDS"},"data":[0,0,0,0,0,0,0,0,0,0,0,0,0,0,0,0,0,0,0,0,0,0,0,0,0,0,0,0,0,0,0,0,0,0,0,0,0,0,0,0,0,0,0,0,0,0,0,0,0,0,0,0,0,0,0,0,0,0,-2.5991,-2.5991,0,-2.6025,-2.6026,-2.6026,-2.6027,-2.6027,-2.6026,-2.6026,-2.6062,-2.6064,-2.6065,0,0,0,0,0,0,0,0,0,0,0,0,0,-2.5928,-2.5929,-2.5991,-2.5991,-2.5992,-2.6025,-2.6026,-2.6026,-2.6027,-2.6027,-2.6026,-2.6026,-2.6062,-2.6064,-2.6065,0,0,0,0,0,0,0,0,0,0,0,0,0,-2.5958,-2.593,-2.5991,-2.5996,-2.5997,-2.6025,-2.6026,-2.6026,-2.6027,-2.6027,-2.6026,-2.6026,-2.6062,-2.6064,-2.6066,-2.6091,0,0,-2.6072,-2.6073,0,0,0,0,0,0,0,0,-2.5957,-2.5961,-2.5995,-2.5996,-2.5997,-2.6021,-2.6017,-2.6048,-2.6028,-2.6016,-2.6026,-2.6025,-2.6049,-2.6052,-2.606,-2.6092,-2.6094,-2.6072,-2.6073,-2.6074,-2.6075,0,0,0,0,0,0,0,-2.5954,-2.5959,-2.6005,-2.5996,-2.5997,-2.5998,-2.6001,-2.6023,-2.6036,-2.6017,-2.6017,-2.6021,-2.605,-2.6058,-2.6061,-2.6094,-2.6072,-2.6074,-2.6075,-2.6076,-2.615,-2.6151,0,0,0,0,0,0,-2.5951,-2.5957,-2.6003,-2.6006,-2.5975,-2.5999,-2.6003,-2.6014,-2.6036,-2.6038,-2.6022,-2.6021,-2.6055,-2.6059,-2.6062,-2.6094,-2.6074,-2.6076,-2.6077,-2.6149,-2.615,-2.6151,0,0,0,0,0,0,-2.595,-2.5955,-2.6002,-2.5982,-2.5988,-2.6001,-2.6013,-2.6015,-2.6024,-2.6039,-2.6042,-2.6028,-2.6055,-2.606,-2.6084,-2.6095,-2.6077,-2.6079,-2.6149,-2.615,-2.6151,-2.6156,0,0,0,0,0,0,-2.5948,-2.5955,-2.5964,-2.5982,-2.5989,-2.6022,-2.6014,-2.6016,-2.6027,-2.6026,-2.6045,-2.6048,-2.6055,-2.6081,-2.6086,-2.6097,-2.608,-2.6148,-2.6149,-2.615,-2.6155,-2.6157,-2.6159,0,0,0,0,0,-2.5946,-2.5964,-2.5964,-2.597,-2.6,-2.6023,-2.6027,-2.6034,-2.6028,-2.6037,-2.6048,-2.6047,-2.6093,-2.6083,-2.6089,-2.6101,-2.6147,-2.6149,-2.615,-2.6154,-2.6157,-2.6159,0,0,0,0,0,0,-2.5947,-2.5966,-2.5967,-2.5991,-2.6005,-2.6023,-2.6035,-2.6036,-2.6052,-2.6051,-2.606,-2.6064,-2.6088,-2.6097,-2.6086,-2.6127,-2.6119,-2.6122,-2.612,-2.6123,-2.6125,-2.6122,-2.6082,0,0,0,0,0,-2.595,-2.5966,-2.5983,-2.6003,-2.601,-2.6021,-2.6031,-2.6036,-2.6051,-2.6056,-2.6068,-2.6083,-2.6101,-2.6113,-2.613,-2.6157,-2.6161,-2.6168,-2.617,-2.6172,-2.6174,-2.619,-2.6193,-2.6157,-2.6157,-2.6157,0,0,-2.5957,-2.597,-2.5979,-2.6003,-2.6015,-2.6032,-2.6026,-2.6044,-2.6057,-2.6059,-2.6083,-2.6092,-2.611,-2.6135,-2.6147,-2.6144,-2.6185,-2.6174,-2.6175,-2.6177,-2.6192,-2.6195,-2.6198,-2.6158,-2.6158,-2.6157,0,0,-2.5978,-2.5989,-2.6007,-2.6019,-2.6036,-2.6044,-2.6048,-2.6066,-2.6072,-2.6096,-2.6098,-2.6114,-2.6144,-2.6157,-2.6167,-2.6194,-2.6195,-2.62,-2.621,-2.6225,-2.6228,-2.6231,-2.6241,-2.6244,-2.6202,-2.6202,-2.6202,0,-2.5984,-2.6009,-2.6016,-2.6035,-2.6045,-2.6048,-2.6067,-2.6078,-2.61,-2.6108,-2.6104,-2.6143,-2.6155,-2.6184,-2.619,-2.6198,-2.6204,-2.6197,-2.6227,-2.623,-2.6232,-2.6242,-2.6246,-2.6202,-2.6202,-2.6202,-2.6202,0,-2.6016,-2.6034,-2.6046,-2.6068,-2.608,-2.6099,-2.6109,-2.6121,-2.6125,-2.6133,-2.6158,-2.6173,-2.6193,-2.62,-2.6204,-2.623,-2.6228,-2.6225,-2.6217,-2.6236,-2.6245,-2.6249,-2.6203,-2.6203,-2.6203,-2.6203,0,0,-2.6037,-2.6063,-2.6067,-2.6077,-2.6097,-2.6111,-2.6131,-2.6151,-2.6161,-2.6177,-2.6193,-2.622,-2.6218,-2.6229,-2.6235,-2.6248,-2.6269,-2.6244,-2.6245,-2.6248,-2.63,-2.6301,-2.6305,-2.627,-2.6271,-2.6271,-2.6298,0,-2.606,-2.6093,-2.6101,-2.613,-2.6147,-2.6151,-2.6168,-2.6182,-2.6191,-2.6207,-2.6217,-2.6236,-2.6232,-2.6239,-2.6252,-2.6264,-2.628,-2.6262,-2.6286,-2.6287,-2.6281,-2.631,-2.6311,-2.6335,-2.6302,-2.6302,-2.6303,0,-2.6091,-2.6107,-2.6138,-2.6156,-2.6163,-2.6178,-2.6198,-2.6213,-2.623,-2.6236,-2.6249,-2.6254,-2.6275,-2.6267,-2.6296,-2.6284,-2.6295,-2.6302,-2.6303,-2.6305,-2.6296,-2.6313,-2.6343,-2.6347,-2.6309,-2.6308,-2.6308,0,-2.6103,-2.6133,-2.6155,-2.6164,-2.6186,-2.6196,-2.6206,-2.6223,-2.6234,-2.6252,-2.626,-2.6279,-2.629,-2.6306,-2.6316,-2.6309,-2.6345,-2.6337,-2.6351,-2.635,-2.6357,-2.6357,-2.639,-2.6365,-2.6365,-2.6365,-2.6365,0,-2.6127,-2.6146,-2.6161,-2.6175,-2.6196,-2.6205,-2.6226,-2.6237,-2.6251,-2.6268,-2.6273,-2.6288,-2.63,-2.6318,-2.6326,-2.635,-2.6355,-2.636,-2.6362,-2.636,-2.6359,-2.6366,-2.6365,-2.6366,-2.6366,-2.6365,-2.6365,0,-2.6144,-2.6155,-2.618,-2.6199,-2.6204,-2.6219,-2.6236,-2.625,-2.626,-2.628,-2.6286,-2.6301,-2.6322,-2.6334,-2.636,-2.6366,-2.6392,-2.6393,-2.6386,-2.6387,-2.6399,-2.6398,-2.6438,-2.6444,-2.6415,-2.6416,-2.6416,0,-2.6158,-2.6173,-2.6194,-2.6205,-2.6215,-2.6233,-2.6245,-2.6255,-2.6268,-2.6289,-2.6301,-2.6322,-2.6339,-2.6373,-2.6387,-2.6407,-2.6409,-2.6422,-2.6412,-2.6409,-2.6409,-2.6408,-2.641,-2.6423,-2.6424,-2.6424,-2.6424,0,-2.6183,-2.6188,-2.6205,-2.6224,-2.6239,-2.6254,-2.627,-2.6279,-2.6292,-2.6306,-2.6328,-2.6341,-2.6368,-2.639,-2.6412,-2.6423,-2.6426,-2.6427,-2.6431,-2.6429,-2.6424,-2.6427,-2.639,-2.6426,-2.6426,-2.6426,-2.6426,-2.6425,-2.6199,-2.6212,-2.6229,-2.6248,-2.6261,-2.6276,-2.629,-2.6302,-2.632,-2.6342,-2.6348,-2.637,-2.6389,-2.6418,-2.643,-2.6449,-2.6446,-2.6452,-2.6454,-2.6455,-2.6456,-2.6421,-2.6453,-2.6453,-2.6453,-2.6453,-2.6453,0,-2.6223,-2.6235,-2.6252,-2.6274,-2.629,-2.6291,-2.6309,-2.6322,-2.6342,-2.6358,-2.6375,-2.6401,-2.6422,-2.6438,-2.6459,-2.6471,-2.6473,-2.6477,-2.6476,-2.6478,-2.6456,-2.645,-2.6475,-2.6475,-2.6475,-2.6475,-2.6475,-2.6475,-2.6238,-2.626,-2.6268,-2.6297,-2.6309,-2.6331,-2.6341,-2.6355,-2.6368,-2.6396,-2.6413,-2.6424,-2.644,-2.6464,-2.6484,-2.6488,-2.6496,-2.6499,-2.6503,-2.6482,-2.648,-2.6478,-2.6472,-2.65,-2.65,-2.6524,-2.6524,-2.6524]},{"header":{"parameterUnit":"m.s-1","parameterCategory":1,"la1":30.2991,"la2":30.254,"lo1":-89.0895,"lo2":-89.0444,"dy":0.0017,"dx":0.0017,"nx":28,"ny":28,"refTime":"2024-10-08T21:00:00:Z","depth":0,"parameterNumber":3,"parameterNumberName":"V-component_of_WINDS"},"data":[0,0,0,0,0,0,0,0,0,0,0,0,0,0,0,0,0,0,0,0,0,0,0,0,0,0,0,0,0,0,0,0,0,0,0,0,0,0,0,0,0,0,0,0,0,0,0,0,0,0,0,0,0,0,0,0,0,0,-3.4886,-3.4886,0,-3.4932,-3.4932,-3.4933,-3.4915,-3.4914,-3.4913,-3.4912,-3.4958,-3.496,-3.4962,0,0,0,0,0,0,0,0,0,0,0,0,0,-3.4781,-3.4783,-3.4885,-3.4886,-3.4887,-3.4932,-3.4932,-3.4933,-3.4915,-3.4914,-3.4913,-3.4911,-3.4957,-3.4959,-3.4962,0,0,0,0,0,0,0,0,0,0,0,0,0,-3.4827,-3.4784,-3.4885,-3.4883,-3.4884,-3.4932,-3.4932,-3.4933,-3.4916,-3.4914,-3.4912,-3.4911,-3.4956,-3.4959,-3.4962,-3.5015,0,0,-3.4972,-3.4974,0,0,0,0,0,0,0,0,-3.4824,-3.483,-3.4883,-3.4883,-3.4884,-3.4916,-3.4912,-3.496,-3.4916,-3.4903,-3.4912,-3.491,-3.4945,-3.4949,-3.4961,-3.5017,-3.5019,-3.4973,-3.4975,-3.4976,-3.4977,0,0,0,0,0,0,0,-3.4821,-3.4828,-3.4904,-3.4884,-3.4884,-3.488,-3.4885,-3.4921,-3.4932,-3.4904,-3.4903,-3.4909,-3.4945,-3.4958,-3.4962,-3.5019,-3.4973,-3.4976,-3.4978,-3.4979,-3.5124,-3.5125,0,0,0,0,0,0,-3.4818,-3.4826,-3.4902,-3.4905,-3.485,-3.4883,-3.4888,-3.4907,-3.4932,-3.4934,-3.491,-3.4908,-3.4953,-3.4958,-3.4964,-3.5029,-3.4976,-3.4979,-3.4981,-3.5122,-3.5124,-3.5126,0,0,0,0,0,0,-3.4816,-3.4825,-3.49,-3.4865,-3.4875,-3.4886,-3.4908,-3.4909,-3.4922,-3.4937,-3.4938,-3.4922,-3.4952,-3.4959,-3.5003,-3.5031,-3.4981,-3.4984,-3.512,-3.5123,-3.5125,-3.516,0,0,0,0,0,0,-3.4813,-3.4824,-3.4844,-3.4866,-3.4877,-3.4939,-3.491,-3.4911,-3.4928,-3.4926,-3.4948,-3.495,-3.4951,-3.4998,-3.5006,-3.5034,-3.4986,-3.5117,-3.5121,-3.5124,-3.5156,-3.5163,-3.5169,0,0,0,0,0,-3.4809,-3.4851,-3.4845,-3.4855,-3.4902,-3.4941,-3.4947,-3.4948,-3.493,-3.4951,-3.4961,-3.4949,-3.5026,-3.5003,-3.5012,-3.5041,-3.5116,-3.512,-3.5124,-3.5153,-3.5162,-3.5169,0,0,0,0,0,0,-3.4831,-3.4854,-3.4848,-3.4898,-3.4918,-3.4938,-3.4964,-3.4957,-3.4982,-3.4978,-3.4978,-3.4983,-3.503,-3.5039,-3.5013,-3.5095,-3.5068,-3.5074,-3.5087,-3.5096,-3.5102,-3.51,-3.4989,0,0,0,0,0,-3.4842,-3.4872,-3.489,-3.4932,-3.4943,-3.4952,-3.4969,-3.4968,-3.4988,-3.4997,-3.5009,-3.5029,-3.5058,-3.5077,-3.5103,-3.5157,-3.5163,-3.5181,-3.5188,-3.5193,-3.52,-3.5231,-3.5241,-3.514,-3.514,-3.514,0,0,-3.4864,-3.488,-3.4899,-3.4937,-3.4953,-3.4985,-3.4959,-3.4993,-3.5017,-3.5001,-3.5045,-3.5055,-3.5077,-3.5127,-3.5149,-3.5136,-3.5228,-3.5199,-3.5203,-3.5206,-3.5237,-3.5246,-3.5255,-3.5143,-3.5142,-3.5142,0,0,-3.4922,-3.4936,-3.4975,-3.4992,-3.5016,-3.5022,-3.5031,-3.5053,-3.5059,-3.5103,-3.5093,-3.5121,-3.5169,-3.5187,-3.5202,-3.5268,-3.526,-3.5277,-3.5312,-3.5343,-3.5351,-3.5358,-3.5385,-3.5394,-3.5282,-3.5282,-3.5282,0,-3.4947,-3.4995,-3.4996,-3.5032,-3.505,-3.5038,-3.5078,-3.5094,-3.5125,-3.5138,-3.5123,-3.5186,-3.5199,-3.5255,-3.5271,-3.5282,-3.5295,-3.5275,-3.535,-3.5357,-3.5364,-3.539,-3.5399,-3.5284,-3.5284,-3.5284,-3.5284,0,-3.5026,-3.506,-3.5088,-3.5121,-3.5142,-3.5179,-3.5186,-3.5206,-3.5204,-3.5212,-3.5258,-3.5274,-3.5305,-3.5317,-3.5314,-3.5373,-3.5365,-3.535,-3.5324,-3.5376,-3.54,-3.5409,-3.5287,-3.5287,-3.5286,-3.5285,0,0,-3.51,-3.5134,-3.5145,-3.5161,-3.5187,-3.5213,-3.525,-3.5282,-3.5302,-3.5323,-3.5356,-3.5398,-3.5386,-3.5403,-3.5402,-3.5428,-3.5484,-3.541,-3.5411,-3.5426,-3.5553,-3.5567,-3.5578,-3.5477,-3.5479,-3.5481,-3.5552,0,-3.5163,-3.5231,-3.5233,-3.5294,-3.5327,-3.5317,-3.535,-3.537,-3.5378,-3.5406,-3.5414,-3.5446,-3.5425,-3.5436,-3.5461,-3.5472,-3.551,-3.5466,-3.551,-3.5511,-3.5508,-3.559,-3.5604,-3.5671,-3.5561,-3.5563,-3.5564,0,-3.5246,-3.5273,-3.5338,-3.5363,-3.5376,-3.5406,-3.5437,-3.5463,-3.5486,-3.549,-3.5511,-3.5506,-3.5545,-3.5516,-3.557,-3.5541,-3.5558,-3.5566,-3.5569,-3.5575,-3.5543,-3.5602,-3.5692,-3.5703,-3.5578,-3.5577,-3.5576,0,-3.5298,-3.535,-3.5397,-3.541,-3.5438,-3.546,-3.5473,-3.5494,-3.5514,-3.554,-3.5554,-3.5583,-3.5601,-3.5624,-3.5628,-3.5606,-3.5684,-3.5654,-3.569,-3.569,-3.571,-3.5709,-3.5807,-3.5715,-3.5715,-3.5715,-3.5715,0,-3.5369,-3.5411,-3.5421,-3.545,-3.5496,-3.5498,-3.5544,-3.5555,-3.5574,-3.5605,-3.5597,-3.5626,-3.5628,-3.5659,-3.5662,-3.5709,-3.5715,-3.5721,-3.5722,-3.5724,-3.5723,-3.5737,-3.5734,-3.5718,-3.5717,-3.5717,-3.5716,0,-3.5436,-3.5444,-3.5496,-3.5519,-3.5526,-3.5559,-3.558,-3.5608,-3.5615,-3.5655,-3.5664,-3.5676,-3.5712,-3.5717,-3.5758,-3.576,-3.5818,-3.5812,-3.5811,-3.5811,-3.5848,-3.5846,-3.5961,-3.5978,-3.5872,-3.5873,-3.5874,0,-3.5483,-3.5515,-3.5543,-3.5564,-3.5579,-3.5612,-3.5633,-3.5636,-3.5658,-3.5688,-3.5713,-3.5748,-3.5776,-3.5834,-3.5846,-3.5878,-3.5875,-3.5913,-3.588,-3.5882,-3.588,-3.5879,-3.5884,-3.5921,-3.5922,-3.5923,-3.5923,0,-3.5567,-3.557,-3.5601,-3.5635,-3.566,-3.5686,-3.571,-3.5728,-3.5734,-3.5759,-3.5797,-3.5819,-3.5862,-3.5898,-3.593,-3.5943,-3.5935,-3.5933,-3.5944,-3.5948,-3.5948,-3.5952,-3.5832,-3.5931,-3.5931,-3.593,-3.593,-3.5929,-3.5628,-3.5657,-3.5682,-3.5718,-3.5737,-3.576,-3.5789,-3.5801,-3.5832,-3.5869,-3.5868,-3.591,-3.5933,-3.5976,-3.5991,-3.6024,-3.6011,-3.6026,-3.603,-3.6035,-3.604,-3.594,-3.6029,-3.6028,-3.6028,-3.6028,-3.6028,0,-3.5715,-3.5731,-3.5763,-3.5799,-3.5827,-3.5817,-3.5844,-3.5869,-3.5906,-3.5929,-3.5958,-3.6002,-3.6036,-3.6052,-3.6086,-3.611,-3.6107,-3.6119,-3.6119,-3.6123,-3.6047,-3.6036,-3.6121,-3.6121,-3.6121,-3.6121,-3.6121,-3.6121,-3.5763,-3.5814,-3.582,-3.588,-3.5895,-3.5937,-3.5954,-3.5976,-3.5994,-3.6044,-3.6074,-3.6084,-3.6104,-3.614,-3.6172,-3.6176,-3.619,-3.6205,-3.6207,-3.6137,-3.6128,-3.6119,-3.6109,-3.6207,-3.6207,-3.628,-3.6281,-3.6281]}]]